User: anonymous   Login
Location: Girdwood
(60.9430°N, 149.1660°W)
Time: 21:05:10
(UTC-09:00)
Language:

Iridium 86 - Orbit

View from above orbital plane
View from above orbital plane
View from above satellite
View from above satellite

Ground track
Ground track

The orbit data is extracted from the following two-line orbital elements,

1 25528U 98066B   18055.46581910 -.00000063  00000-0 -29533-4 0  9991
2 25528  86.3924 244.2848 0001287 112.1862 247.9470 14.34216378 15522
Epoch (UTC): 24 February 2018 11:10:46
Eccentricity: 0.0001287
inclination: 86.3924°
perigee height: 777 km
apogee height: 778 km
right ascension of ascending node: 244.2848°
argument of perigee: 112.1862°
revolutions per day: 14.34216378
mean anomaly at epoch: 247.9470°
orbit number at epoch: 1552

The dashed part of the orbit path shows where the satellite is in the earth's shadow,  

DLR